Big Rapids, MI

3:44 AM EDT on August 31, 2016 (GMT -0400)
Roben-Hood

Weather History for KRQB - November, 2011

Change the Weather History Date:

Sunday, November 6, 2011

  Actual Average Record
Temperature  
Mean Temperature 46 °F -  
Max Temperature 62 °F 46 °F 72 °F (1975)
Min Temperature 30 °F 30 °F 16 °F (1991)
Degree Days  
Heating Degree Days 19    
Moisture  
Dew Point 37 °F    
Average Humidity 74    
Maximum Humidity 93    
Minimum Humidity 59    
Precipitation  
Precipitation 0.00 in - - ()
Sea Level Pressure  
Sea Level Pressure 30.05 in    
Wind  
Wind Speed 8 mph (South)    
Max Wind Speed 23 mph    
Max Gust Speed 33 mph    
Visibility 10 miles    
Events      
Averages and records for this station are not official NWS values.
T = Trace of Precipitation, MM = Missing Value Source: NWS Daily Summary

Daily Weather History Graph

Daily Weather History Graph

Search for Another Location

Airport or City:

Trip Planner

Search our weather history database for the weather conditions in past years. The results will help you decide how hot, cold, wet, or windy it might be!

Date:

Astronomy

Nov. 06, 2011 Rise Set
Actual Time 7:24 AM EST 5:26 PM EST
Civil Twilight 6:53 AM EST 5:56 PM EST
Nautical Twilight 6:19 AM EST 6:30 PM EST
Astronomical Twilight 5:46 AM EST 7:04 PM EST
Moon 3:15 PM EST (11/6) 3:23 AM EST (11/6)
Length of Visible Light 11h 02m
Length of Day
10h 02m
Waxing Gibbous, 85% of the Moon is Illuminated
Nov 6
Waxing Gibbous
Nov 10
Full
Nov 18
Last Quarter
Nov 25
New
Dec 2
First Quarter

Hourly Weather History & Observations

Time (EST) Temp. Windchill Dew Point Humidity Pressure Visibility Wind Dir Wind Speed Gust Speed Precip Events Conditions
12:05 AM 33.8 °F 30.8 °F 28.4 °F 81% 30.13 in 10.0 mi South 3.5 mph - N/A   Clear
12:25 AM 32.0 °F - 28.4 °F 87% 30.12 in 10.0 mi Calm Calm - N/A   Clear
12:45 AM 32.0 °F 25.6 °F 28.4 °F 87% 30.11 in 10.0 mi SSW 6.9 mph - N/A   Clear
1:05 AM 32.0 °F 27.5 °F 30.2 °F 93% 30.11 in 10.0 mi South 4.6 mph - N/A   Clear
1:25 AM 33.8 °F 28.6 °F 28.4 °F 81% 30.11 in 10.0 mi South 5.8 mph - N/A   Clear
1:45 AM 35.6 °F 31.7 °F 28.4 °F 75% 30.10 in 10.0 mi South 4.6 mph - N/A   Clear
1:05 AM 37.4 °F 33.8 °F 28.4 °F 70% 30.10 in 10.0 mi South 4.6 mph - N/A   Clear
1:25 AM 35.6 °F 31.7 °F 28.4 °F 75% 30.10 in 10.0 mi South 4.6 mph - N/A   Clear
1:45 AM 33.8 °F 28.6 °F 28.4 °F 81% 30.10 in 10.0 mi South 5.8 mph - N/A   Clear
2:05 AM 35.6 °F 29.9 °F 30.2 °F 81% 30.10 in 10.0 mi South 6.9 mph - N/A   Clear
2:25 AM 37.4 °F 32.1 °F 30.2 °F 75% 30.10 in 10.0 mi South 6.9 mph - N/A   Clear
2:45 AM 37.4 °F 32.1 °F 30.2 °F 75% 30.10 in 10.0 mi South 6.9 mph - N/A   Clear
3:05 AM 35.6 °F 30.7 °F 30.2 °F 81% 30.10 in 10.0 mi SSE 5.8 mph - N/A   Clear
3:25 AM 35.6 °F 30.7 °F 30.2 °F 81% 30.10 in 10.0 mi South 5.8 mph - N/A   Clear
3:45 AM 33.8 °F 29.6 °F 28.4 °F 81% 30.10 in 10.0 mi South 4.6 mph - N/A   Clear
4:25 AM 32.0 °F 28.7 °F 28.4 °F 87% 30.10 in 10.0 mi SSE 3.5 mph - N/A   Clear
4:45 AM 32.0 °F 28.7 °F 28.4 °F 87% 30.10 in 10.0 mi South 3.5 mph - N/A   Clear
5:05 AM 30.2 °F 25.4 °F 28.4 °F 93% 30.10 in 10.0 mi SSE 4.6 mph - N/A   Clear
5:25 AM 33.8 °F 30.8 °F 30.2 °F 87% 30.10 in 10.0 mi SSE 3.5 mph - N/A   Clear
5:45 AM 33.8 °F 29.6 °F 30.2 °F 87% 30.09 in 10.0 mi South 4.6 mph - N/A   Clear
6:05 AM 33.8 °F 29.6 °F 28.4 °F 81% 30.09 in 10.0 mi South 4.6 mph - N/A   Clear
6:25 AM 33.8 °F 29.6 °F 30.2 °F 87% 30.09 in 10.0 mi South 4.6 mph - N/A   Clear
6:45 AM 33.8 °F 28.6 °F 30.2 °F 87% 30.08 in 10.0 mi South 5.8 mph - N/A   Clear
7:05 AM 35.6 °F 30.7 °F 30.2 °F 81% 30.08 in 10.0 mi South 5.8 mph - N/A   Clear
7:25 AM 35.6 °F 30.7 °F 32.0 °F 87% 30.08 in 10.0 mi South 5.8 mph - N/A   Clear
7:45 AM 37.4 °F 31.4 °F 32.0 °F 81% 30.08 in 10.0 mi South 8.1 mph - N/A   Clear
8:05 AM 39.2 °F 35.0 °F 32.0 °F 75% 30.08 in 10.0 mi South 5.8 mph - N/A   Clear
8:25 AM 39.2 °F 33.6 °F 33.8 °F 81% 30.08 in 10.0 mi SSE 8.1 mph - N/A   Clear
8:45 AM 41.0 °F 35.2 °F 35.6 °F 81% 30.07 in 10.0 mi South 9.2 mph - N/A   Clear
9:05 AM 42.8 °F 38.6 °F 35.6 °F 76% 30.07 in 10.0 mi South 6.9 mph 16.1 mph N/A   Clear
9:25 AM 46.4 °F 41.5 °F 37.4 °F 71% 30.06 in 10.0 mi South 10.4 mph 16.1 mph N/A   Clear
10:05 AM 50.0 °F - 41.0 °F 71% 30.05 in 10.0 mi SSE 10.4 mph 21.9 mph N/A   Clear
10:25 AM 51.8 °F - 41.0 °F 67% 30.05 in 10.0 mi South 10.4 mph 21.9 mph N/A   Clear
10:45 AM 55.4 °F - 42.8 °F 63% 30.04 in 10.0 mi South 10.4 mph 18.4 mph N/A   Clear
11:05 AM 57.2 °F - 44.6 °F 63% 30.04 in 10.0 mi SSW 16.1 mph 25.3 mph N/A   Clear
11:25 AM 59.0 °F - 46.4 °F 63% 30.03 in 10.0 mi SSW 10.4 mph 25.3 mph N/A   Clear
11:45 AM 59.0 °F - 46.4 °F 63% 30.02 in 10.0 mi SSW 11.5 mph 25.3 mph N/A   Clear
12:05 PM 59.0 °F - 46.4 °F 63% 30.01 in 10.0 mi South 17.3 mph 27.6 mph N/A   Clear
12:45 PM 59.0 °F - 46.4 °F 63% 29.98 in 10.0 mi SSW 18.4 mph 28.8 mph N/A   Scattered Clouds
1:05 PM 60.8 °F - 48.2 °F 63% 29.97 in 10.0 mi SSW 21.9 mph 28.8 mph N/A   Scattered Clouds
1:25 PM 62.6 °F - 48.2 °F 59% 29.96 in 10.0 mi SW 17.3 mph 26.5 mph N/A   Scattered Clouds
2:05 PM 60.8 °F - 48.2 °F 63% 29.97 in 10.0 mi SSW 16.1 mph 33.4 mph N/A   Mostly Cloudy
2:25 PM 60.8 °F - 46.4 °F 59% 29.97 in 10.0 mi SSW 23.0 mph 29.9 mph N/A   Scattered Clouds
2:45 PM 60.8 °F - 46.4 °F 59% 29.97 in 10.0 mi SSW 21.9 mph 33.4 mph N/A   Mostly Cloudy
3:05 PM 60.8 °F - 46.4 °F 59% 29.98 in 10.0 mi SW 18.4 mph 28.8 mph N/A   Overcast
3:25 PM 59.0 °F - 46.4 °F 63% 29.98 in 10.0 mi SW 17.3 mph 25.3 mph N/A   Overcast
4:05 PM 59.0 °F - 46.4 °F 63% 29.97 in 10.0 mi South 13.8 mph 26.5 mph N/A   Overcast
4:25 PM 59.0 °F - 46.4 °F 63% 29.97 in 10.0 mi South 12.7 mph 26.5 mph N/A   Overcast
4:45 PM 59.0 °F - 46.4 °F 63% 29.97 in 10.0 mi SSW 15.0 mph 29.9 mph N/A   Overcast
5:05 PM 59.0 °F - 46.4 °F 63% 29.98 in 10.0 mi SSW 12.7 mph 27.6 mph N/A   Overcast
5:25 PM 59.0 °F - 46.4 °F 63% 29.99 in 10.0 mi SW 13.8 mph 27.6 mph N/A   Overcast
5:45 PM 57.2 °F - 46.4 °F 67% 29.98 in 10.0 mi SSW 17.3 mph 27.6 mph N/A   Overcast
6:25 PM 57.2 °F - 48.2 °F 72% 30.00 in 10.0 mi SW 12.7 mph 25.3 mph N/A   Overcast
6:45 PM 57.2 °F - 48.2 °F 72% 30.01 in 10.0 mi SSW 12.7 mph 24.2 mph N/A   Overcast
7:05 PM 55.4 °F - 48.2 °F 77% 30.01 in 10.0 mi SW 13.8 mph 27.6 mph N/A   Overcast
7:25 PM 55.4 °F - 48.2 °F 77% 30.01 in 10.0 mi SSW 18.4 mph 25.3 mph N/A   Overcast
7:45 PM 55.4 °F - 48.2 °F 77% 30.01 in 10.0 mi SW 15.0 mph 24.2 mph N/A   Overcast
8:05 PM 55.4 °F - 48.2 °F 77% 30.01 in 10.0 mi SSW 17.3 mph 25.3 mph N/A   Overcast
8:25 PM 55.4 °F - 48.2 °F 77% 30.01 in 10.0 mi SSW 18.4 mph 25.3 mph N/A   Overcast
8:45 PM 55.4 °F - 48.2 °F 77% 30.01 in 10.0 mi SSW 12.7 mph 26.5 mph N/A   Overcast
9:05 PM 55.4 °F - 46.4 °F 72% 30.01 in 10.0 mi SSW 18.4 mph 25.3 mph N/A   Overcast
9:25 PM 55.4 °F - 46.4 °F 72% 30.02 in 10.0 mi SSW 11.5 mph 23.0 mph N/A   Overcast
9:45 PM 57.2 °F - 46.4 °F 67% 30.02 in 10.0 mi SSW 12.7 mph 24.2 mph N/A   Overcast
10:05 PM 57.2 °F - 46.4 °F 67% 30.03 in 10.0 mi SW 12.7 mph 26.5 mph N/A   Overcast
10:45 PM 57.2 °F - 46.4 °F 67% 30.03 in 10.0 mi SW 12.7 mph 21.9 mph N/A   Overcast